This is the latest recevied weather packets stored in our database for station/object SV9TNF-56. If no packets are shown the sender has not sent any weather packets the latest 10 day(s).
| Time | Temp. | Humidity | Pressure | Rain* | Wind** | Luminosity | Snow |
|---|---|---|---|---|---|---|---|
| 1788433752 | 26.11° C | 57% | 1009.1 hPa | 0 mm | 21.9 m/s, 178° | - | - |
| 1788433452 | 26.11° C | 57% | 1009.5 hPa | 0 mm | 19.67 m/s, 252° | - | - |
| 1788433152 | 26.67° C | 56% | 1009.1 hPa | 0 mm | 16.09 m/s, 168° | - | - |
| 1788432852 | 26.11° C | 57% | 1009.1 hPa | 0 mm | 9.83 m/s, 251° | - | - |
| 1788432551 | 26.11° C | 56% | 1009.1 hPa | 0 mm | 21.46 m/s, 108° | - | - |
| 1788432252 | 26.11° C | 56% | 1009.1 hPa | 0 mm | 19.67 m/s, 252° | - | - |
| 1788431951 | 26.11° C | 57% | 1009.1 hPa | 0 mm | 20.56 m/s, 174° | - | - |
| 1788431651 | 26.11° C | 59% | 1009.5 hPa | 0 mm | 16.99 m/s, 186° | - | - |
| 1788431351 | 26.11° C | 59% | 1009.1 hPa | 0 mm | 8.05 m/s, 119° | - | - |
| 1788431052 | 26.67° C | 58% | 1009.5 hPa | 0 mm | 19.22 m/s, 251° | - | - |
| 1788430751 | 26.11° C | 56% | 1009.5 hPa | 0 mm | 8.94 m/s, 191° | - | - |
| 1788430451 | 26.11° C | 55% | 1009.5 hPa | 0 mm | 19.67 m/s, 288° | - | - |
| 1788430151 | 26.11° C | 57% | 1009.8 hPa | 0 mm | 14.75 m/s, 167° | - | - |
| 1788429851 | 26.11° C | 58% | 1009.8 hPa | 0 mm | 19.22 m/s, 192° | - | - |
| 1788429550 | 26.11° C | 58% | 1009.8 hPa | 0 mm | 28.61 m/s, 120° | - | - |
| 1788429251 | 26.11° C | 58% | 1010.2 hPa | 0 mm | 9.83 m/s, 126° | - | - |
| 1788428951 | 26.67° C | 59% | 1009.8 hPa | 0 mm | 13.86 m/s, 199° | - | - |
| 1788428650 | 26.11° C | 61% | 1010.2 hPa | 0 mm | 8.05 m/s, 217° | - | - |
| 1788428350 | 26.11° C | 62% | 1010.2 hPa | 0 mm | 10.28 m/s, 179° | - | - |
| 1788428050 | 26.67° C | 60% | 1009.8 hPa | 0 mm | 16.54 m/s, 248° | - | - |
| 1788427750 | 26.67° C | 59% | 1009.8 hPa | 0 mm | 8.94 m/s, 126° | - | - |
| 1788427450 | 26.67° C | 60% | 1010.2 hPa | 0 mm | 8.94 m/s, 157° | - | - |
| 1788427150 | 26.67° C | 63% | 1010.2 hPa | 0 mm | 28.16 m/s, 262° | - | - |
| 1788426850 | 26.11° C | 64% | 1010.2 hPa | 0 mm | 23.69 m/s, 259° | - | - |
| 1788426549 | 26.11° C | 66% | 1010.2 hPa | 0 mm | 14.75 m/s, 277° | - | - |
* Rain latest hour (hover to see other rain measurements)
** Current wind speed in m/s (hover to see current wind gust speed)